KE8TTQ-1 Weather Reports


time (UTC)temp
C
wind
direction
speed
KPH
gust
KPH
rain 1hr
cm
rain 24hr
cm
rain mn
cm
humidity
%
barometer
mb
20260903055239 25 0.0 0.0 0.00 0.00 0.00 10 1017.6
20260903053239 26 0.0 0.0 0.00 0.00 0.00 10 1017.6
20260903051240 25 0.0 0.0 0.00 0.00 0.00 10 1017.6
20260903033239 26 0.0 0.0 0.00 0.00 0.00 10 1017.6
20260903015234 27 0.0 0.0 0.00 0.00 0.00 10 1017.9
20260903013235 27 0.0 0.0 0.00 0.00 0.00 10 1017.6
20260903011234 27 0.0 0.0 0.00 0.00 0.00 10 1017.6
20260902235235 31 0.0 0.0 0.00 0.00 0.00 88 1016.9
20260902223234 34 0.0 0.0 0.00 0.00 0.00 48 1016.9
20260902203233 36 0.0 0.0 0.00 0.00 0.00 45 1017.2
20260902201233 36 0.0 0.0 0.00 0.00 0.00 44 1017.6
20260902195233 37 0.0 0.0 0.00 0.00 0.00 44 1017.6
20260902185233 36 0.0 0.0 0.00 0.00 0.00 45 1018.2
20260902175233 37 0.0 0.0 0.00 0.00 0.00 47 1018.6
20260902173233 37 0.0 0.0 0.00 0.00 0.00 48 1018.9
20260902163233 39 0.0 0.0 0.00 0.00 0.00 42 1019.6
20260902125233 27 0.0 0.0 0.00 0.00 0.00 10 1019.9
20260902123232 26 0.0 0.0 0.00 0.00 0.00 10 1019.9
20260902115233 24 0.0 0.0 0.00 0.00 0.00 10 1019.6
20260902113233 22 0.0 0.0 0.00 0.00 0.00 10 1019.6
20260902095232 22 0.0 0.0 0.00 0.00 0.00 10 1019.3
20260902093232 22 0.0 0.0 0.00 0.00 0.00 10 1019.3
20260902083232 23 0.0 0.0 0.00 0.00 0.00 10 1018.9
20260902081231 23 0.0 0.0 0.00 0.00 0.00 10 1018.9
20260902075232 23 0.0 0.0 0.00 0.00 0.00 10 1018.6
20260902073231 23 0.0 0.0 0.00 0.00 0.00 10 1018.6
20260902071231 23 0.0 0.0 0.00 0.00 0.00 10 1018.6
20260902065232 23 0.0 0.0 0.00 0.00 0.00 10 1018.2
20260902061231 24 0.0 0.0 0.00 0.00 0.00 10 1018.2